Regional Weather Roundup
Issued by NWS

Home | Current Version | Previous Version | Graphics & Text | Print | Product List | Glossary On
Versions: 1 2 3 4 5 6 7 8 9 10 11 12 13 14 15 16 17 18 19 20 21 22 23 24 25 26 27 28 29 30 31 32 33 34 35 36 37 38 39 40 41 42 43 44 45 46 47 48 49 50
000
ASUS43 KFSD 271410
RWRSD

WEATHER ROUNDUP FOR SOUTH DAKOTA
NATIONAL WEATHER SERVICE SIOUX FALLS SD
900 AM CDT FRI MAY 27 2016

NOTE: "FAIR" INDICATES FEW OR NO CLOUDS BELOW 12,000 FEET WITH NO
SIGNIFICANT WEATHER AND/OR OBSTRUCTIONS TO VISIBILITY.


SDZ001>005-009-010-012>017-271500-
NORTHWEST AND NORTH CENTRAL SOUTH DAKOTA

CITY           SKY/WX    TMP DP  RH WIND       PRES   REMARKS
BUFFALO          N/A     58  45  62 W9        29.80S
FAITH            N/A     58  44  60 N13       29.82S
MOBRIDGE       MOSUNNY   61  51  70 N9        29.77F
$$

SDZ012>016-024>037-041>051-057-063-072>074-271500-
SOUTHWEST AND SOUTH CENTRAL SOUTH DAKOTA

CITY           SKY/WX    TMP DP  RH WIND       PRES   REMARKS
RAPID CTY ARPT CLOUDY    57  44  62 NE5       29.85S
PIERRE         CLOUDY    57  50  77 N15       29.76S
CUSTER         CLOUDY    51  42  71 NW5       29.90F
PHILIP         CLOUDY    60  47  61 N15       29.79S
PINE RIDGE     CLOUDY    54  44  69 N6        29.84R
WINNER         CLOUDY    60  54  80 CALM      29.77R
$$

SDZ004>011-016>023-039-040-271500-
NORTHEAST SOUTH DAKOTA

CITY           SKY/WX    TMP DP  RH WIND       PRES   REMARKS
ABERDEEN       CLOUDY    65  56  72 NE5       29.78R
WATERTOWN      CLOUDY    66  56  70 NE6       29.77R
BROOKINGS      CLOUDY    61  56  83 CALM      29.77R
SISSETON         N/A     67  56  67 NE7       29.76R
$$

SDZ017-020-022-023-036>040-048>070-271500-
SOUTHEAST SOUTH DAKOTA

CITY           SKY/WX    TMP DP  RH WIND       PRES   REMARKS
SIOUX FALLS    LGT RAIN  62  56  80 S9        29.78R
HURON          CLOUDY    62  59  90 MISG      29.73R
CHAMBERLAIN    CLOUDY    62  57  84 N5        29.74S
MITCHELL       LGT RAIN  62  60  93 SE8       29.76R
YANKTON        CLOUDY    61  55  82 SE7       29.78S
$$

ABBREVIATIONS USED IN REMARKS
   TC - TEMPERATURE IN CELSIUS
  WCI - WIND CHILL INDEX
   HX - HEAT INDEX
  VSB - VISIBILITY





USA.gov is the U.S. government's official web portal to all federal, state and local government web resources and services.